Location: Albany
(35.0000°S, 118.0000°E)
Time: 13:02:09
(UTC-05:00)

ISS - All Passes

Search period start: 28 November 2014 00:00
Search period end: 08 December 2014 00:00
Orbit: 407 x 417 km, 51.6° (Epoch: 28 November)

Date Brightness Start Highest point End Pass type
(mag) Time Alt. Az. Time Alt. Az. Time Alt. Az.
28 Nov - 03:37:21 10° SSW 03:40:00 21° SSE 03:42:37 10° E daylight
28 Nov - 05:13:34 10° WSW 05:16:45 39° NW 05:19:54 10° NNE daylight
28 Nov - 20:16:17 10° NNW 20:19:17 31° NE 20:22:20 10° ESE daylight
28 Nov - 21:53:07 10° W 21:55:57 24° SSW 21:58:48 10° SSE daylight
29 Nov - 02:48:04 10° S 02:49:55 14° SSE 02:51:45 10° ESE daylight
29 Nov - 04:23:33 10° SW 04:26:58 82° NW 04:30:19 10° NE daylight
29 Nov - 19:27:27 10° NNE 19:29:34 16° NE 19:31:43 10° E daylight
29 Nov - 21:02:44 10° WNW 21:05:57 41° SW 21:09:12 10° SE daylight
30 Nov - 03:33:44 10° SW 03:37:03 49° SE 03:40:20 10° ENE daylight
30 Nov - 05:11:44 10° W 05:13:21 13° NW 05:14:58 10° NNW daylight
30 Nov - 20:12:38 10° NW 20:16:00 80° SW 20:19:25 10° SE daylight
30 Nov - 21:51:38 10° SW 21:53:08 12° SSW 21:54:38 10° S daylight
01 Dec - 02:44:03 10° SSW 02:47:03 28° SE 02:50:00 10° E daylight
01 Dec - 04:20:46 10° WSW 04:23:37 25° NW 04:26:25 10° N daylight
01 Dec - 19:22:51 10° NNW 19:26:06 49° NE 19:29:24 10° ESE daylight
01 Dec - 21:00:30 10° WSW 21:02:56 18° SSW 21:05:23 10° SSE daylight
02 Dec - 01:54:30 10° SSW 01:56:55 18° SSE 01:59:18 10° ESE daylight
02 Dec - 03:30:27 10° WSW 03:33:46 51° NW 03:37:02 10° NNE daylight
02 Dec - 18:33:28 10° N 18:36:14 24° NE 18:39:02 10° ESE daylight
02 Dec - 20:09:48 10° W 20:12:47 28° SW 20:15:48 10° SSE daylight
03 Dec - 01:05:15 10° S 01:06:40 12° SSE 01:08:05 10° SE daylight
03 Dec - 02:40:24 10° SW 02:43:49 77° SE 02:47:10 10° NE daylight
03 Dec - 17:44:56 10° NNE 17:46:25 12° NE 17:47:54 10° E daylight
03 Dec - 19:19:24 10° WNW 19:22:41 51° SW 19:26:01 10° SE daylight
04 Dec - 01:50:31 10° SSW 01:53:45 39° SE 01:56:56 10° ENE daylight
04 Dec - 03:27:55 10° W 03:30:08 17° NW 03:32:20 10° N daylight
04 Dec - 18:29:17 10° NW 18:32:38 79° NE 18:36:01 10° SE daylight
04 Dec - 20:07:45 10° WSW 20:09:38 14° SSW 20:11:32 10° S daylight
05 Dec - 01:00:45 10° SSW 01:03:34 23° SSE 01:06:21 10° E daylight
05 Dec - 02:37:10 10° WSW 02:40:14 32° NW 02:43:15 10° NNE daylight
05 Dec - 17:39:30 10° NNW 17:42:37 37° NE 17:45:46 10° ESE daylight
05 Dec - 19:16:41 10° W 19:19:20 21° SSW 19:22:01 10° SSE daylight
06 Dec - 00:11:10 10° S 00:13:16 15° SSE 00:15:22 10° ESE daylight
06 Dec - 01:46:51 10° SW 01:50:13 67° NW 01:53:33 10° NE daylight
06 Dec - 16:50:14 10° N 16:52:39 19° NE 16:55:06 10° E daylight
06 Dec - 18:25:58 10° WNW 18:29:05 35° SW 18:32:14 10° SSE daylight
06 Dec - 23:22:08 10° S 23:22:52 11° SSE 23:23:36 10° SE daylight
07 Dec - 00:56:44 10° SW 01:00:06 59° SE 01:03:26 10° ENE daylight
07 Dec - 02:35:27 10° WNW 02:36:19 11° NW 02:37:11 10° NW daylight
07 Dec - 17:35:33 10° NW 17:38:53 67° SW 17:42:15 10° SE daylight
07 Dec - 19:14:59 10° SW 19:16:04 11° SSW 19:17:08 10° S daylight
